Location: Bailleul
(50.3375°N, 2.8513°E)
Time: 10:03:48
(UTC+00:00)

Meteor 2-15 - Pass Details

Date: 19 April 2021
Orbit: 936 x 956 km, 82.5° (Epoch: 05 May)

Event Time Altitude Azimuth Distance (km) Brightness Sun altitude
Exits shadow 21:25:34 39° 150° (SSE) 1,373 4.8 -20.8°
Maximum altitude 21:27:36 58° 94° (E) 1,090 4.5 -21.0°
Drops below altitude 10° 21:33:32 10° 17° (NNE) 2,660 7.3 -21.6°
Sets 21:36:03 0° 14° (NNE) 3,609 8.1 -21.8°
